Location: Bratislava
(48.1500°N, 17.1167°E)
Time: 02:43:45
(UTC+01:00)

Daily predictions for brighter satellites

Satellite Brightness Start Highest point End
(mag) Time Altitude Azimuth Time Altitude Azimuth Time Altitude Azimuth
Cosmos 1980 Rocket 4.1 03:41:50 23° SE 03:41:50 23° SE 03:43:56 10° SE
ATLAS 5 CENTAUR R/B 4.2 04:09:57 17° NNE 04:09:57 17° NNE 04:13:16 10° NE
USA 267 3.2 04:10:48 10° NE 04:17:21 77° SE 04:17:37 76° SSE
SL-16 R/B 3.2 04:17:16 39° NNE 04:18:11 42° NE 04:23:31 10° ESE
Meteor 1-11 Rocket 4.3 04:17:24 10° S 04:23:11 57° E 04:28:53 10° NNE
Cosmos 2322 Rocket 3.1 04:22:49 40° NNE 04:23:56 44° NE 04:29:21 10° SE
Cosmos 2344 4.5 04:24:33 45° NW 04:28:57 80° SW 04:43:09 10° SSE
SKYMED 2 4.0 04:42:25 10° SSE 04:46:16 60° ESE 04:46:16 60° ESE
Cosmos 2082 Rocket 3.0 04:51:13 38° N 04:51:13 38° N 04:55:03 10° NNE
Cosmos 1833 Rocket 3.6 04:55:57 34° N 04:55:57 34° N 04:59:34 10° NNE
USA 234 3.2 04:47:43 10° SE 04:54:15 72° SW 04:55:47 54° W
Cosmos 1092 Rocket 4.4 04:55:34 10° S 05:01:34 61° E 05:07:38 10° NNE
EO 1 Del DPAF 3.7 05:05:07 10° SSE 05:08:04 52° S 05:08:04 52° S
Okean 1-7 Rocket 4.5 05:06:48 14° N 05:10:37 50° ENE 05:15:02 10° SSE
CZ-4B R/B 3.7 05:05:24 10° N 05:09:34 41° NNW 05:09:34 41° NNW
IRS-1C Rocket 4.4 05:06:51 10° N 05:11:08 47° NW 05:11:08 47° NW
IRS-P2 Rocket 4.5 05:07:38 10° N 05:12:50 64° WNW 05:18:03 10° SSW
Cosmos 2333 Rocket 4.4 05:09:18 10° N 05:13:12 18° NE 05:17:05 10° E
Cosmos 1300 Rocket 3.3 05:11:27 10° SSW 05:15:45 79° W 05:20:07 10° N
SeaSat 1 2.4 05:11:08 10° NNE 05:16:02 63° NW 05:17:14 47° WSW
CZ-4C R/B 2.3 05:12:11 17° SSW 05:16:22 75° SE 05:22:29 10° NE
COSMOS 2428 4.4 05:12:09 11° N 05:16:44 27° NE 05:21:33 10° ESE
Meteor 1-23 Rocket 4.1 05:14:17 31° NNW 05:16:59 67° W 05:22:29 10° S
Meteor 1-4 Rocket 3.3 05:14:01 10° S 05:17:44 56° E 05:21:28 10° NNE
Cosmos 1025 Rocket 3.0 05:17:10 29° N 05:19:19 79° E 05:23:35 10° SSE
ERBS 4.5 05:20:52 17° NNE 05:20:52 17° NNE 05:22:39 10° NE
Cosmos 2360 Rocket 2.9 05:16:27 18° NNW 05:20:35 51° ENE 05:26:06 10° SE
Cosmos 1980 Rocket 3.4 05:23:40 24° SW 05:23:40 24° SW 05:26:47 10° SSW
Meteor 2-11 Rocket 4.4 05:19:07 10° N 05:25:17 84° E 05:31:22 10° S
NOAA 6 3.9 05:21:03 10° NNE 05:26:11 76° WNW 05:31:19 10° SSW
deb Kosmos-1763 4.4 05:24:28 10° SSW 05:28:10 67° ESE 05:31:54 10° NNE
Cosmos 1500 3.5 05:25:26 10° S 05:29:15 68° E 05:33:05 10° NNE
Cosmos 2219 Rocket 4.1 05:25:16 10° N 05:29:45 23° NE 05:34:14 10° E
CZ-2C R/B 2.6 05:25:58 10° NNE 05:30:51 70° ESE 05:35:33 10° S
COSMO-SKYMED 1 2.9 05:30:44 10° S 05:34:51 41° W 05:34:52 41° W
CZ-4 R/B 4.1 05:34:15 10° NE 05:37:33 22° E 05:40:52 10° SE
Okean-O 2.6 05:33:42 10° N 05:38:05 60° WNW 05:42:26 10° SSW
Cosmos 2237 Rocket 4.3 05:41:36 10° N 05:45:34 19° NE 05:49:30 10° E
Cosmos 1184 Rocket 2.6 05:44:44 39° NNW 05:45:51 73° W 05:49:09 10° S
Cosmos 773 Rocket 3.9 05:42:56 10° SW 05:48:01 62° WNW 05:53:10 10° NNE
Okean 1 Rocket 3.1 05:46:48 10° SSW 05:51:06 54° WNW 05:55:27 10° N
BREEZE-M DEB (TANK) 3.6 05:49:51 17° SSW 05:51:24 39° SE 05:55:33 10° ENE
IDEFIX/ARIANE 42P 2.5 05:46:17 10° N 05:51:26 62° WNW 05:56:34 10° SSW
MSX 3.8 05:48:06 10° NNE 05:53:54 89° ESE 05:59:38 10° SSW
SJ-12 3.8 05:51:43 10° NNE 05:55:49 89° ESE 05:59:53 10° SSW
ATLAS 5 CENTAUR R/B 3.5 05:51:30 14° NNW 05:55:50 34° NNE 06:01:29 10° E
Okean 2 3.8 05:55:12 26° NW 05:56:58 40° W 06:00:48 10° SSW
Cosmos 1680 Rocket 3.7 05:52:42 10° SSW 05:57:53 73° ESE 06:03:07 10° NNE
USA 267 3.5 05:53:55 10° NE 06:00:12 52° NNW 06:04:58 18° W
Cosmos 1666 3.7 05:57:52 10° S 06:01:34 48° E 06:05:15 10° NNE
SL-16 R/B 2.8 05:59:11 21° NW 06:02:14 37° WSW 06:07:23 10° S
Cosmos 192 4.4 05:58:57 10° SW 06:03:44 52° WNW 06:08:34 10° NNE
Cosmos 1975 2.7 06:01:01 10° S 06:05:00 85° W 06:09:01 10° N
COSMOS 2441 4.3 06:01:16 10° N 06:06:08 74° WNW 06:10:54 10° SSW
Nadezhda 4 Rocket 4.5 06:00:42 10° SW 06:06:14 34° WNW 06:11:47 10° N
MINOTAUR R/B 4.2 06:06:33 44° WNW 06:06:33 44° WNW 06:08:55 10° NNE
Cosmos 1892 Rocket 3.5 06:03:25 10° NNW 06:07:51 81° W 06:12:12 10° S
Cosmos 2322 Rocket 2.9 06:04:41 20° NW 06:07:53 35° WSW 06:12:57 10° S
Cosmos 389 Rocket 3.0 06:06:19 10° S 06:09:54 63° E 06:13:29 10° NNE
Cosmos 1371 Rocket 4.0 06:06:46 10° NNW 06:12:02 89° ENE 06:17:14 10° SSE
Cosmos 2285 Rocket 4.0 06:07:05 10° SSW 06:13:25 85° WNW 06:19:46 10° NNE
CSL-04 Rocket 4.1 06:08:10 10° NNE 06:13:44 70° ESE 06:19:15 10° S
BREEZE-M DEB (TANK) 2.6 06:12:17 16° WNW 06:17:55 72° SSW 06:20:26 10° ESE
Cosmos 2237 4.2 06:12:40 10° NNW 06:18:25 89° WSW 06:24:07 10° SSE
Thor Agena Rocket 3.7 06:14:10 10° S 06:19:04 52° W 06:24:04 10° NNW
ATLAS CENTAUR R/B 3.4 06:20:21 10° S 06:23:33 28° ESE 06:26:44 10° ENE
Cosmos 1238 Rocket 4.5 06:17:16 10° N 06:23:56 66° ENE 06:29:56 10° SSE
SMAP 3.2 06:19:38 10° NNE 06:24:20 83° ESE 06:29:00 10° SSW
Cosmos 923 Rocket 4.1 06:24:27 10° SW 06:29:32 51° WNW 06:34:39 10° NNE
S3M 4.0 06:25:12 10° NNW 06:31:20 68° W 06:37:31 10° S
Cosmos 2322 3.8 06:25:47 10° NNW 06:31:25 65° WSW 06:36:59 10° SSE
Cosmos 2082 Rocket 3.9 06:33:07 12° NW 06:35:02 14° NNW 06:37:53 10° N
Cosmos 1602 Rocket 3.9 06:31:39 10° N 06:35:58 66° E 06:40:15 10° SSE
ALOS 4.0 06:33:15 10° NNE 06:37:36 37° E 06:41:54 10° SSE
Cosmos 1833 Rocket 4.4 06:37:41 11° NW 06:39:39 13° NNW 06:42:00 10° N
Cosmos 1833 4.1 06:34:09 10° SSW 06:39:43 79° WNW 06:45:22 10° NNE
SL-16 R/B 4.2 06:36:39 10° N 06:40:54 21° NE 06:45:07 10° E
Cosmos 1484 Rocket 3.0 06:38:04 10° N 06:41:51 48° WNW 06:45:33 10° SW
Cosmos 1842 3.2 06:39:10 10° N 06:43:09 83° W 06:47:07 10° S
APEX 3.5 06:40:24 10° SW 06:43:53 48° NW 06:48:20 10° NNE
SWAS 4.4 06:40:43 10° SSW 06:45:03 82° WNW 06:49:24 10° NNE
Cosmos 1743 3.0 06:42:10 10° SSW 06:45:49 44° WNW 06:49:31 10° N
Cosmos 2112 Rocket 4.1 06:40:50 10° SW 06:45:54 54° WNW 06:51:03 10° NNE
Aureole 2 Rocket 2.2 06:43:12 10° NNW 06:46:39 78° WSW 06:49:47 10° SSE
Cosmos 1455 Rocket 3.1 06:43:22 10° SSW 06:47:46 59° WNW 06:52:13 10° N
Cosmos 2056 Rocket 3.6 06:44:23 10° NNW 06:49:25 57° WSW 06:54:26 10° S
Meteor 1-21 4.3 06:44:23 10° NNW 06:49:55 63° W 06:55:27 10° S
Cosmos 1544 Rocket 3.8 06:47:42 10° SSW 06:52:02 50° WNW 06:56:22 10° N
CORIOLIS 4.1 06:46:50 10° NNE 06:52:12 76° WNW 06:57:31 10° SSW
SeaSat 1 4.0 06:49:56 10° N 06:52:45 15° NW 06:55:33 10° WNW
Meteor 1-4 Rocket 4.4 06:51:12 10° W 06:53:13 14° WNW 06:55:15 10° NNW
ERBS 3.5 06:54:30 10° NW 06:57:36 33° NNE 07:00:41 10° E
Cosmos 2333 Rocket 2.5 06:52:45 10° NNW 06:58:33 72° ENE 07:04:17 10° SE
Cosmos 1655 Rocket 4.4 06:54:28 10° SW 07:00:21 43° WNW 07:06:20 10° N
Cosmos 1340 Rocket 3.3 06:56:43 10° NNW 07:00:27 41° W 07:04:10 10° SSW
COSMOS 2428 2.8 06:55:47 10° NNW 07:01:29 66° WSW 07:07:09 10° SSE
Cosmos 1452 Rocket 3.7 06:56:41 10° NNW 07:02:01 79° ENE 07:07:18 10° SSE
